�N����,����,�~����,�C��,���x,�C��,����,���ϕ���,�ő�u�ԕ���,�ő厞����,���˗�,�I�_���x,�n�����x,�ő啗���N��,DTYPE
"22/06/16","00:10",0.0,19.5,94.2,1006.0,290.7,0.8,1.0,309.7,0.00,18.6,20.2,"00:02:48",1
"22/06/16","00:20",0.0,19.5,94.3,1005.7,309.0,1.0,1.3,315.8,0.00,18.6,19.8,"00:12:56",1
"22/06/16","00:30",0.0,19.5,94.4,1006.0,317.4,1.3,1.7,311.4,0.00,18.6,19.9,"00:22:00",1
"22/06/16","00:40",0.0,19.4,94.5,1006.2,311.9,1.0,1.3,318.5,0.00,18.5,20.1,"00:30:16",1
"22/06/16","00:50",0.0,19.5,94.6,1006.0,316.8,1.1,1.4,316.9,0.00,18.7,19.9,"00:45:28",1
"22/06/16","01:00",0.0,19.5,94.7,1006.2,292.1,0.7,1.1,292.6,0.00,18.7,20.2,"00:57:12",1
"22/06/16","01:10",0.0,19.4,94.7,1006.0,283.4,0.6,1.2,323.4,0.00,18.6,20.0,"01:00:02",1
"22/06/16","01:20",0.0,19.4,94.8,1006.0,304.9,1.0,1.3,313.5,0.00,18.6,20.1,"01:11:04",1
"22/06/16","01:30",0.0,19.4,94.9,1006.0,305.6,0.8,1.2,317.5,0.00,18.6,20.2,"01:21:28",1
"22/06/16","01:40",0.0,19.4,94.9,1005.7,287.3,0.6,1.1,313.1,0.00,18.6,20.1,"01:39:20",1
"22/06/16","01:50",0.0,19.4,95.0,1006.0,296.4,0.8,1.7,318.5,0.00,18.6,19.9,"01:47:36",1
"22/06/16","02:00",0.0,19.4,95.1,1006.2,312.3,0.7,1.3,322.9,0.00,18.6,19.9,"01:55:12",1
"22/06/16","02:10",0.0,19.3,95.1,1006.0,312.7,0.7,1.2,323.4,0.00,18.5,20.1,"02:07:04",1
"22/06/16","02:20",0.0,19.3,95.2,1005.7,304.0,1.0,1.1,284.1,0.00,18.6,20.0,"02:15:44",1
"22/06/16","02:30",0.0,19.1,95.2,1005.7,276.7,0.7,1.1,304.6,0.00,18.4,20.0,"02:21:04",1
"22/06/16","02:40",0.0,19.0,95.3,1006.2,280.5,0.7,1.2,264.2,0.00,18.3,20.0,"02:35:04",1
"22/06/16","02:50",0.0,18.9,95.4,1005.7,307.7,0.8,1.3,317.7,0.00,18.2,20.0,"02:49:12",1
"22/06/16","03:00",0.0,18.8,95.5,1006.0,326.1,1.1,1.3,327.0,0.00,18.1,19.8,"02:51:52",1
"22/06/16","03:10",0.0,18.6,95.5,1006.0,317.2,1.0,1.4,321.7,0.00,17.9,19.8,"03:06:00",1
"22/06/16","03:20",0.0,18.4,95.7,1006.2,273.4,0.5,1.0,302.4,0.00,17.7,20.0,"03:19:36",1
"22/06/16","03:30",0.0,18.6,95.8,1006.2,321.5,0.8,1.3,348.0,0.00,18.0,19.9,"03:29:52",1
"22/06/16","03:40",0.0,18.5,95.7,1006.2,295.3,0.8,1.4,341.8,0.00,17.8,19.8,"03:30:32",1
"22/06/16","03:50",0.0,18.5,95.9,1006.2,318.5,1.0,1.8,314.3,0.00,17.9,20.0,"03:49:36",1
"22/06/16","04:00",0.0,18.5,95.9,1006.0,328.2,1.2,1.6,311.8,0.00,17.9,19.9,"03:50:08",1
"22/06/16","04:10",0.0,18.5,95.9,1006.2,319.8,1.1,1.4,311.8,0.00,17.9,19.9,"04:06:40",1
"22/06/16","04:20",0.0,18.5,96.0,1006.2,318.7,1.1,1.4,323.0,0.00,17.9,19.8,"04:16:16",1
"22/06/16","04:30",0.0,18.5,96.0,1006.4,283.8,0.8,1.3,329.0,0.00,17.9,19.9,"04:20:24",1
"22/06/16","04:40",0.0,18.5,96.1,1006.4,274.6,0.5,1.0,311.4,0.00,17.9,19.8,"04:30:56",1
"22/06/16","04:50",0.0,18.5,96.1,1006.4,279.6,0.2,0.6,311.3,0.00,17.9,19.8,"04:41:36",1
"22/06/16","05:00",0.0,18.5,96.2,1006.9,325.7,0.6,1.2,325.3,0.00,17.9,19.8,"04:52:32",1
"22/06/16","05:10",0.0,18.7,96.2,1006.7,328.5,1.0,1.8,346.0,0.00,18.1,19.7,"05:08:08",1
"22/06/16","05:20",0.0,18.7,96.2,1006.4,326.5,1.3,1.7,331.5,0.00,18.1,19.7,"05:13:44",1
"22/06/16","05:30",0.0,18.8,96.2,1006.4,287.3,0.8,1.8,312.1,0.00,18.2,19.7,"05:21:28",1
"22/06/16","05:40",0.0,18.7,96.3,1006.7,278.8,0.8,1.4,248.9,0.00,18.1,19.7,"05:31:04",1
"22/06/16","05:50",0.0,18.8,96.3,1006.4,296.0,1.0,1.6,336.2,0.00,18.2,19.8,"05:49:28",1
"22/06/16","06:00",0.0,18.9,96.4,1006.4,287.6,0.8,1.3,331.3,0.00,18.4,19.6,"05:50:08",1
"22/06/16","06:10",0.0,18.9,96.4,1006.2,302.0,0.7,1.2,326.2,0.00,18.4,19.7,"06:09:44",1
"22/06/16","06:20",0.0,19.0,96.4,1006.4,335.2,1.0,1.3,343.2,0.00,18.5,19.6,"06:12:00",1
"22/06/16","06:30",0.0,19.1,96.4,1006.4,287.8,0.6,1.0,327.3,0.00,18.6,19.7,"06:22:08",1
"22/06/16","06:40",0.0,19.1,96.4,1006.7,277.6,0.5,0.9,310.2,0.00,18.6,19.7,"06:38:56",1
"22/06/16","06:50",0.0,19.1,96.5,1006.7,318.7,0.6,1.1,298.5,0.00,18.6,19.8,"06:47:36",1
"22/06/16","07:00",0.0,19.2,96.5,1006.4,334.1,0.8,1.3,348.8,0.00,18.7,19.5,"06:56:40",1
"22/06/16","07:10",0.0,19.4,96.5,1006.9,330.4,1.0,1.6,335.2,0.00,18.9,19.6,"07:03:44",1
"22/06/16","07:20",0.0,19.4,96.5,1006.4,317.8,0.8,1.4,323.6,0.01,18.9,19.7,"07:15:04",1
"22/06/16","07:30",0.0,19.5,96.5,1006.9,291.3,0.7,1.4,259.6,0.02,19.0,19.7,"07:27:20",1
"22/06/16","07:40",0.0,19.6,96.5,1006.7,264.3,0.8,1.3,254.0,0.03,19.1,19.7,"07:34:32",1
"22/06/16","07:50",0.0,19.8,96.5,1006.4,285.9,0.3,0.9,253.4,0.02,19.3,19.5,"07:46:32",1
"22/06/16","08:00",0.0,20.0,96.5,1006.7,293.1,0.3,1.0,315.9,0.04,19.5,19.7,"07:59:12",1
"22/06/16","08:10",0.0,20.1,96.4,1006.7,317.9,0.8,1.6,328.3,0.03,19.5,19.5,"08:07:20",1
"22/06/16","08:20",0.0,20.0,96.5,1006.4,317.3,1.1,1.9,323.8,0.03,19.5,19.5,"08:16:56",1
"22/06/16","08:30",0.0,20.2,96.5,1006.0,253.4,0.2,0.8,260.1,0.04,19.7,19.6,"08:23:52",1
"22/06/16","08:40",0.0,20.4,96.5,1006.4,298.4,0.7,1.2,321.4,0.04,19.9,19.7,"08:38:32",1
"22/06/16","08:50",0.0,20.6,96.4,1006.7,303.9,0.6,1.1,320.5,0.04,20.0,19.5,"08:49:28",1
"22/06/16","09:00",0.0,20.8,96.4,1006.2,309.9,0.7,1.6,330.3,0.05,20.2,19.8,"08:59:12",1
"22/06/16","09:10",0.0,20.6,96.5,1006.0,331.7,1.1,1.9,339.1,0.07,20.1,19.6,"09:02:48",1
"22/06/16","09:20",0.0,21.1,96.4,1006.0,349.0,0.5,1.3,349.4,0.12,20.5,19.5,"09:18:56",1
"22/06/16","09:30",0.0,21.4,96.3,1005.7,349.7,0.3,0.9,350.9,0.08,20.8,19.7,"09:26:40",1
"22/06/16","09:40",0.0,21.0,95.5,1006.0,181.1,0.5,1.1,201.1,0.09,20.3,19.7,"09:37:28",1
"22/06/16","09:50",0.0,21.6,95.7,1005.7,179.6,0.1,0.6,221.2,0.10,20.9,19.9,"09:40:16",1
"22/06/16","10:00",0.0,21.6,95.8,1006.0,354.3,1.0,1.8,358.6,0.09,20.9,19.9,"09:54:32",1
"22/06/16","10:10",0.0,21.7,95.7,1005.7,354.8,0.6,1.6,338.5,0.10,21.0,19.9,"10:05:52",1
"22/06/16","10:20",0.0,22.3,95.5,1005.7,342.0,0.2,1.0,333.9,0.11,21.6,19.9,"10:13:52",1
"22/06/16","10:30",0.0,21.8,95.2,1005.7,1.0,0.8,1.6,2.1,0.11,21.0,19.7,"10:25:04",1
"22/06/16","10:40",0.0,22.3,94.8,1005.2,344.8,0.5,1.4,327.7,0.17,21.5,19.8,"10:39:20",1
"22/06/16","10:50",0.0,22.9,94.3,1005.5,293.2,0.8,1.7,328.8,0.23,22.0,19.7,"10:45:20",1
"22/06/16","11:00",0.0,23.2,92.9,1005.0,214.6,0.5,1.4,219.7,0.26,22.0,19.9,"10:56:16",1
"22/06/16","11:10",0.0,23.7,92.6,1005.0,182.3,0.6,1.9,4.6,0.22,22.5,19.8,"11:09:28",1
"22/06/16","11:20",0.0,23.5,91.7,1004.8,154.9,0.5,1.1,162.2,0.13,22.1,19.9,"11:16:40",1
"22/06/16","11:30",0.0,23.8,90.4,1004.8,346.2,0.6,1.3,328.8,0.13,22.2,20.0,"11:22:00",1
"22/06/16","11:40",0.0,24.4,88.7,1004.5,133.0,0.3,1.4,350.4,0.18,22.5,20.2,"11:32:00",1
"22/06/16","11:50",0.0,24.7,86.7,1004.5,272.0,0.6,1.8,231.6,0.20,22.4,20.1,"11:46:40",1
"22/06/16","12:00",0.0,24.9,83.9,1004.3,192.2,0.8,2.1,147.4,0.22,22.0,20.1,"11:53:44",1
"22/06/16","12:10",0.0,25.4,82.1,1004.3,204.3,1.0,2.1,239.6,0.28,22.2,20.3,"12:02:00",1
"22/06/16","12:20",0.0,25.8,79.9,1004.3,75.6,1.1,2.2,133.4,0.28,22.1,20.3,"12:14:24",1
"22/06/16","12:30",0.0,26.1,77.8,1004.1,14.2,1.0,2.6,22.6,0.25,22.0,20.2,"12:22:08",1
"22/06/16","12:40",0.0,26.8,75.4,1003.4,346.5,0.7,1.8,34.5,0.33,22.1,20.3,"12:30:08",1
"22/06/16","12:50",0.0,26.4,74.5,1003.4,13.4,0.8,1.9,344.9,0.17,21.5,20.5,"12:49:44",1
"22/06/16","13:00",0.0,26.3,75.9,1003.1,322.8,0.8,2.0,359.6,0.18,21.7,20.4,"12:54:32",1
"22/06/16","13:10",0.0,26.8,74.8,1003.1,270.7,0.6,2.0,242.4,0.33,22.0,20.6,"13:03:20",1
"22/06/16","13:20",0.0,27.1,73.9,1003.4,166.8,1.0,2.2,152.6,0.26,22.1,20.5,"13:18:48",1
"22/06/16","13:30",0.0,27.3,73.1,1003.1,204.6,0.8,2.2,209.1,0.27,22.1,20.7,"13:28:40",1
"22/06/16","13:40",0.0,26.9,72.8,1002.9,216.1,1.1,2.5,241.3,0.21,21.6,20.9,"13:35:12",1
"22/06/16","13:50",0.0,26.6,72.2,1002.9,235.4,1.3,3.5,227.1,0.17,21.2,20.7,"13:47:28",1
"22/06/16","14:00",0.0,26.6,71.4,1002.9,235.1,2.5,4.8,233.0,0.32,21.0,20.6,"13:55:12",1
"22/06/16","14:10",0.0,27.2,70.7,1002.6,230.6,1.7,3.3,259.5,0.31,21.5,20.9,"14:00:56",1
"22/06/16","14:20",0.0,27.7,70.0,1002.9,219.4,1.6,3.6,225.5,0.34,21.8,20.9,"14:19:12",1
"22/06/16","14:30",0.0,27.7,69.4,1003.1,212.4,1.6,4.0,216.7,0.31,21.6,21.0,"14:28:16",1
"22/06/16","14:40",0.0,27.5,69.1,1003.1,205.7,1.5,3.2,243.9,0.23,21.4,20.9,"14:31:52",1
"22/06/16","14:50",0.0,27.4,68.8,1002.6,223.3,1.2,3.3,255.3,0.20,21.2,21.1,"14:42:08",1
"22/06/16","15:00",0.0,26.8,69.4,1002.6,195.0,2.1,6.3,206.6,0.14,20.8,21.2,"14:58:24",1
"22/06/16","15:10",0.0,26.5,70.4,1002.6,222.9,2.2,4.5,225.4,0.10,20.7,21.1,"15:00:08",1
"22/06/16","15:20",0.0,26.9,70.8,1002.4,259.7,0.7,1.9,208.6,0.11,21.2,21.2,"15:10:16",1
"22/06/16","15:30",0.0,26.8,70.2,1002.4,277.7,1.5,5.0,239.8,0.18,21.0,21.1,"15:24:32",1
"22/06/16","15:40",0.0,27.1,70.0,1002.2,268.0,1.2,3.2,239.6,0.21,21.2,21.4,"15:30:24",1
"22/06/16","15:50",0.0,27.0,69.5,1002.2,249.7,1.7,4.0,209.4,0.18,21.0,21.3,"15:49:44",1
"22/06/16","16:00",0.0,27.3,69.5,1001.5,270.1,1.3,3.9,214.7,0.24,21.3,21.4,"15:50:08",1
"22/06/16","16:10",0.0,27.1,69.3,1001.5,242.2,1.7,3.7,217.7,0.20,21.0,21.3,"16:05:52",1
"22/06/16","16:20",0.0,27.3,69.2,1001.7,260.4,1.5,3.3,234.5,0.22,21.2,21.5,"16:18:32",1
"22/06/16","16:30",0.0,27.2,69.4,1001.7,240.1,1.5,2.7,231.5,0.16,21.2,21.5,"16:26:08",1
"22/06/16","16:40",0.0,26.8,69.8,1002.2,252.7,2.1,4.3,228.1,0.15,20.9,21.4,"16:32:40",1
"22/06/16","16:50",0.0,27.1,70.2,1001.9,254.1,1.8,3.3,228.3,0.20,21.2,21.5,"16:41:52",1
"22/06/16","17:00",0.0,27.4,69.5,1001.7,254.4,1.6,3.2,249.0,0.22,21.4,21.6,"16:54:32",1
"22/06/16","17:10",0.0,26.9,69.6,1001.9,257.9,2.2,5.0,225.4,0.14,20.9,21.6,"17:02:08",1
"22/06/16","17:20",0.0,26.8,70.2,1001.9,269.9,1.7,3.4,318.9,0.11,21.0,21.7,"17:18:32",1
"22/06/16","17:30",0.0,26.8,70.4,1001.7,278.5,1.3,2.8,307.8,0.09,21.0,21.6,"17:23:28",1
"22/06/16","17:40",0.0,26.7,70.9,1002.2,296.6,1.6,3.6,353.8,0.09,21.0,21.6,"17:32:00",1
"22/06/16","17:50",0.0,26.2,71.6,1001.9,287.5,2.0,4.0,292.5,0.06,20.7,21.5,"17:40:16",1
"22/06/16","18:00",0.0,26.0,72.5,1002.4,249.3,2.1,4.3,233.0,0.05,20.7,21.7,"17:57:04",1
"22/06/16","18:10",0.0,25.7,73.7,1002.4,271.7,1.6,4.0,242.9,0.04,20.7,21.8,"18:08:08",1
"22/06/16","18:20",0.0,25.6,74.4,1002.9,286.0,1.5,3.3,267.5,0.04,20.7,21.5,"18:10:56",1
"22/06/16","18:30",0.0,25.5,75.0,1002.9,302.7,1.3,2.5,352.1,0.05,20.8,21.6,"18:29:44",1
"22/06/16","18:40",0.0,25.5,75.4,1002.6,312.6,1.2,3.3,343.6,0.05,20.9,21.8,"18:30:08",1
"22/06/16","18:50",0.0,25.2,75.6,1002.4,322.3,1.6,3.1,332.4,0.04,20.6,21.7,"18:40:32",1
"22/06/16","19:00",0.0,25.0,76.1,1002.6,316.8,2.2,4.0,344.7,0.03,20.5,21.6,"18:50:32",1
"22/06/16","19:10",0.0,24.7,76.3,1002.9,331.8,2.7,6.5,343.8,0.01,20.3,21.7,"19:08:08",1
"22/06/16","19:20",0.0,24.8,76.1,1002.6,305.5,2.3,6.0,247.9,0.00,20.3,21.4,"19:14:24",1
"22/06/16","19:30",0.0,24.6,75.7,1002.6,284.3,1.8,3.4,296.5,0.00,20.1,21.7,"19:24:08",1
"22/06/16","19:40",0.0,24.6,75.1,1003.1,281.0,2.2,5.6,232.5,0.00,19.9,21.6,"19:30:08",1
"22/06/16","19:50",0.0,24.4,74.8,1003.1,265.3,1.5,3.9,241.6,0.00,19.7,21.4,"19:44:08",1
"22/06/16","20:00",0.0,24.3,74.8,1002.9,314.8,0.8,2.4,329.2,0.00,19.6,21.6,"19:50:24",1
"22/06/16","20:10",0.0,24.1,75.4,1003.1,286.5,0.8,2.1,50.3,0.00,19.5,21.4,"20:02:56",1
"22/06/16","20:20",0.0,23.9,75.9,1003.6,300.7,0.7,1.8,306.4,0.00,19.4,21.5,"20:12:24",1
"22/06/16","20:30",0.0,23.8,76.2,1003.4,303.4,1.0,2.7,334.6,0.00,19.4,21.5,"20:24:00",1
"22/06/16","20:40",0.0,23.8,76.4,1003.8,315.7,0.8,2.0,260.9,0.00,19.4,21.4,"20:38:32",1
"22/06/16","20:50",0.0,23.9,76.3,1003.8,340.4,1.7,3.7,347.7,0.00,19.5,21.4,"20:43:20",1
"22/06/16","21:00",0.0,23.9,76.1,1003.6,326.3,1.8,3.4,354.9,0.00,19.5,21.4,"20:50:56",1
"22/06/16","21:10",0.0,23.7,77.0,1003.8,327.5,1.6,2.9,339.9,0.00,19.5,21.4,"21:02:24",1
"22/06/16","21:20",0.0,23.4,78.1,1004.3,330.8,1.8,2.6,311.6,0.00,19.4,21.4,"21:13:12",1
"22/06/16","21:30",0.0,23.2,79.1,1004.3,328.2,1.6,2.4,337.7,0.00,19.4,21.5,"21:26:56",1
"22/06/16","21:40",0.0,22.9,80.4,1004.5,340.9,1.8,2.7,334.7,0.00,19.4,21.3,"21:35:36",1
"22/06/16","21:50",0.0,22.7,81.1,1004.5,325.9,0.8,2.1,319.1,0.00,19.3,21.3,"21:43:12",1
"22/06/16","22:00",0.0,22.5,81.5,1004.3,286.0,0.7,1.7,319.4,0.00,19.2,21.1,"21:52:56",1
"22/06/16","22:10",0.0,22.6,81.8,1004.3,312.3,1.3,2.4,327.9,0.00,19.4,21.0,"22:02:32",1
"22/06/16","22:20",0.0,22.5,81.6,1004.5,310.7,0.7,1.6,354.0,0.00,19.2,21.2,"22:13:28",1
"22/06/16","22:30",0.0,22.3,81.9,1004.5,312.4,0.6,1.7,336.8,0.00,19.1,21.3,"22:24:00",1
"22/06/16","22:40",0.0,22.5,81.7,1004.5,17.3,0.8,2.1,357.2,0.00,19.3,21.2,"22:38:48",1
"22/06/16","22:50",0.0,22.7,81.2,1004.3,331.1,0.6,1.6,352.4,0.00,19.4,21.2,"22:40:24",1
"22/06/16","23:00",0.0,22.5,81.3,1004.5,330.3,0.8,1.8,352.8,0.00,19.2,21.1,"22:59:28",1
"22/06/16","23:10",0.0,22.6,81.1,1004.5,350.6,1.2,2.1,353.5,0.00,19.2,21.0,"23:04:24",1
"22/06/16","23:20",0.0,22.3,81.3,1004.3,9.5,0.5,1.2,336.3,0.00,19.0,21.1,"23:14:48",1
"22/06/16","23:30",0.0,22.2,82.1,1004.3,355.6,1.2,1.8,351.0,0.00,19.0,21.0,"23:22:24",1
"22/06/16","23:40",0.0,21.9,82.7,1004.3,326.1,1.2,1.8,326.7,0.00,18.9,21.0,"23:34:00",1
"22/06/16","23:50",0.0,21.4,83.5,1004.1,318.1,0.7,1.1,331.9,0.00,18.5,21.0,"23:40:16",1
"22/06/16","24:00",0.0,21.3,84.5,1004.3,329.4,1.2,1.8,332.8,0.00,18.6,21.1,"23:56:56",1
